Thomaston, GA

9:39 PM EDT on March 30, 2017 (GMT -0400)
Thomaston-Upson County

Weather History for KOPN - February, 2013

Change the Weather History Date:

Wednesday, February 27, 2013

  Actual Average (KFFC) Record (KFFC)
Temperature  
Mean Temperature 48 °F -  
Max Temperature 60 °F 58 °F 75 °F (2011)
Min Temperature 37 °F 36 °F 23 °F (2002)
Degree Days  
Heating Degree Days 16    
Moisture  
Dew Point 37 °F    
Average Humidity 65    
Maximum Humidity 93    
Minimum Humidity 42    
Precipitation  
Precipitation 0.00 in - - ()
Sea Level Pressure  
Sea Level Pressure 29.88 in    
Wind  
Wind Speed 11 mph (West)    
Max Wind Speed 20 mph    
Max Gust Speed 26 mph    
Visibility 10 miles    
Events      
Averages and records for this station are not official NWS values.
T = Trace of Precipitation, MM = Missing Value Source: NWS Daily Summary

Daily Weather History Graph

Daily Weather History Graph

Search for Another Location

Airport or City:

Trip Planner

Search our weather history database for the weather conditions in past years. The results will help you decide how hot, cold, wet, or windy it might be!

Date:

Astronomy

Feb. 27, 2013 Rise Set
Actual Time 7:07 AM EST 6:32 PM EST
Civil Twilight 6:42 AM EST 6:57 PM EST
Nautical Twilight 6:13 AM EST 7:26 PM EST
Astronomical Twilight 5:44 AM EST 7:54 PM EST
Moon 8:42 PM EST (2/27) 7:50 AM EST (2/27)
Length of Visible Light 12h 15m
Length of Day
11h 25m
Waning Gibbous, 96% of the Moon is Illuminated
Feb 27
Waning Gibbous
Mar 4
Last Quarter
Mar 11
New
Mar 19
First Quarter
Mar 27
Full

Hourly Weather History & Observations

Time (EST) Temp. Windchill Dew Point Humidity Pressure Visibility Wind Dir Wind Speed Gust Speed Precip Events Conditions
12:15 AM 42.8 °F 36.2 °F 37.4 °F 81% 29.82 in 10.0 mi West 12.7 mph - N/A   Clear
12:35 AM 42.8 °F 35.4 °F 37.4 °F 81% 29.82 in 10.0 mi WNW 15.0 mph 18.4 mph N/A   Clear
12:55 AM 42.8 °F 36.2 °F 37.4 °F 81% 29.83 in 10.0 mi WNW 12.7 mph - N/A   Clear
1:15 AM 42.8 °F 37.0 °F 35.6 °F 76% 29.84 in 10.0 mi WNW 10.4 mph 17.3 mph N/A   Clear
1:35 AM 42.8 °F 36.6 °F 35.6 °F 76% 29.85 in 10.0 mi WNW 11.5 mph 21.9 mph N/A   Clear
1:55 AM 41.0 °F 35.8 °F 35.6 °F 81% 29.85 in 10.0 mi WNW 8.1 mph - N/A   Clear
2:15 AM 41.0 °F 35.2 °F 35.6 °F 81% 29.85 in 10.0 mi WNW 9.2 mph - N/A   Clear
2:35 AM 41.0 °F 35.2 °F 35.6 °F 81% 29.85 in 10.0 mi WNW 9.2 mph - N/A   Clear
2:55 AM 41.0 °F 35.2 °F 33.8 °F 76% 29.85 in 10.0 mi West 9.2 mph - N/A   Scattered Clouds
3:15 AM 41.0 °F 35.8 °F 33.8 °F 76% 29.84 in 10.0 mi WNW 8.1 mph - N/A   Mostly Cloudy
3:35 AM 41.0 °F 35.2 °F 33.8 °F 76% 29.85 in 10.0 mi WNW 9.2 mph - N/A   Mostly Cloudy
3:55 AM 41.0 °F 35.2 °F 33.8 °F 76% 29.84 in 10.0 mi WNW 9.2 mph - N/A   Scattered Clouds
4:15 AM 41.0 °F 34.7 °F 33.8 °F 76% 29.85 in 10.0 mi WNW 10.4 mph - N/A   Scattered Clouds
4:35 AM 41.0 °F 35.2 °F 33.8 °F 76% 29.85 in 10.0 mi West 9.2 mph - N/A   Scattered Clouds
4:55 AM 41.0 °F 35.8 °F 33.8 °F 76% 29.86 in 10.0 mi West 8.1 mph - N/A   Overcast
5:15 AM 42.8 °F 36.6 °F 35.6 °F 76% 29.87 in 10.0 mi WNW 11.5 mph - N/A   Overcast
5:35 AM 42.8 °F 36.6 °F 35.6 °F 76% 29.88 in 10.0 mi WNW 11.5 mph - N/A   Overcast
5:55 AM 41.0 °F 34.7 °F 33.8 °F 76% 29.88 in 10.0 mi WNW 10.4 mph - N/A   Mostly Cloudy
6:15 AM 41.0 °F 35.8 °F 33.8 °F 76% 29.88 in 10.0 mi WNW 8.1 mph - N/A   Scattered Clouds
6:35 AM 37.4 °F 33.8 °F 33.8 °F 87% 29.88 in 10.0 mi West 4.6 mph - N/A   Clear
6:55 AM 37.4 °F 33.8 °F 33.8 °F 87% 29.88 in 10.0 mi WNW 4.6 mph - N/A   Clear
7:15 AM 37.4 °F 32.8 °F 33.8 °F 87% 29.89 in 10.0 mi WSW 5.8 mph - N/A   Clear
7:35 AM 37.4 °F 33.8 °F 33.8 °F 87% 29.90 in 10.0 mi WSW 4.6 mph - N/A   Clear
7:55 AM 37.4 °F 33.8 °F 33.8 °F 87% 29.91 in 10.0 mi WSW 4.6 mph - N/A   Clear
8:15 AM 37.4 °F 32.1 °F 35.6 °F 93% 29.92 in 10.0 mi SW 6.9 mph - N/A   Clear
8:35 AM 41.0 °F 37.1 °F 35.6 °F 81% 29.92 in 10.0 mi WSW 5.8 mph - N/A   Clear
8:55 AM 42.8 °F 37.5 °F 35.6 °F 76% 29.93 in 10.0 mi West 9.2 mph - N/A   Clear
9:15 AM 44.6 °F 39.2 °F 35.6 °F 71% 29.92 in 10.0 mi NW 10.4 mph - N/A   Clear
9:35 AM 44.6 °F 39.2 °F 35.6 °F 71% 29.93 in 10.0 mi WNW 10.4 mph 21.9 mph N/A   Clear
9:55 AM 46.4 °F 40.7 °F 35.6 °F 66% 29.93 in 10.0 mi West 12.7 mph - N/A   Clear
10:15 AM 46.4 °F 41.9 °F 37.4 °F 71% 29.93 in 10.0 mi WNW 9.2 mph 18.4 mph N/A   Clear
10:35 AM 48.2 °F - 37.4 °F 66% 29.93 in 10.0 mi WNW 12.7 mph 19.6 mph N/A   Clear
10:55 AM 50.0 °F - 37.4 °F 62% 29.93 in 10.0 mi West 13.8 mph - N/A   Clear
11:15 AM 50.0 °F - 37.4 °F 62% 29.93 in 10.0 mi West 12.7 mph - N/A   Clear
11:35 AM 51.8 °F - 37.4 °F 58% 29.93 in 10.0 mi WNW 11.5 mph 16.1 mph N/A   Clear
11:55 AM 51.8 °F - 39.2 °F 62% 29.93 in 10.0 mi West 9.2 mph - N/A   Clear
12:15 PM 53.6 °F - 39.2 °F 58% 29.92 in 10.0 mi West 12.7 mph - N/A   Clear
12:35 PM 53.6 °F - 39.2 °F 58% 29.92 in 10.0 mi West 10.4 mph 16.1 mph N/A   Clear
12:55 PM 55.4 °F - 39.2 °F 54% 29.92 in 10.0 mi WSW 10.4 mph 17.3 mph N/A   Clear
1:15 PM 55.4 °F - 39.2 °F 54% 29.91 in 10.0 mi West 13.8 mph 19.6 mph N/A   Clear
1:35 PM 57.2 °F - 41.0 °F 55% 29.90 in 10.0 mi West 13.8 mph 20.7 mph N/A   Clear
1:55 PM 59.0 °F - 41.0 °F 51% 29.89 in 10.0 mi West 13.8 mph 21.9 mph N/A   Clear
2:15 PM 59.0 °F - 41.0 °F 51% 29.88 in 10.0 mi WSW 17.3 mph - N/A   Clear
2:35 PM 59.0 °F - 41.0 °F 51% 29.87 in 10.0 mi WNW 15.0 mph - N/A   Clear
2:55 PM 59.0 °F - 39.2 °F 48% 29.86 in 10.0 mi West 18.4 mph 23.0 mph N/A   Clear
3:15 PM 60.8 °F - 39.2 °F 45% 29.85 in 10.0 mi West 16.1 mph 23.0 mph N/A   Clear
3:35 PM 60.8 °F - 37.4 °F 42% 29.85 in 10.0 mi WNW 19.6 mph 26.5 mph N/A   Clear
3:55 PM 60.8 °F - 39.2 °F 45% 29.85 in 10.0 mi West 13.8 mph 17.3 mph N/A   Clear
4:15 PM 60.8 °F - 37.4 °F 42% 29.85 in 10.0 mi West 15.0 mph 20.7 mph N/A   Clear
4:35 PM 60.8 °F - 37.4 °F 42% 29.86 in 10.0 mi WNW 18.4 mph - N/A   Clear
4:55 PM 60.8 °F - 37.4 °F 42% 29.86 in 10.0 mi West 19.6 mph 24.2 mph N/A   Clear
5:15 PM 60.8 °F - 37.4 °F 42% 29.86 in 10.0 mi WNW 12.7 mph 20.7 mph N/A   Clear
5:35 PM 60.8 °F - 37.4 °F 42% 29.86 in 10.0 mi West 13.8 mph - N/A   Clear
5:55 PM 59.0 °F - 37.4 °F 45% 29.85 in 10.0 mi West 10.4 mph 18.4 mph N/A   Clear
6:15 PM 59.0 °F - 37.4 °F 45% 29.86 in 10.0 mi West 10.4 mph - N/A   Clear
6:35 PM 55.4 °F - 37.4 °F 51% 29.86 in 10.0 mi West 6.9 mph - N/A   Clear
6:55 PM 55.4 °F - 37.4 °F 51% 29.87 in 10.0 mi West 6.9 mph - N/A   Clear
7:15 PM 53.6 °F - 39.2 °F 58% 29.87 in 10.0 mi West 9.2 mph - N/A   Clear
7:35 PM 53.6 °F - 41.0 °F 62% 29.87 in 10.0 mi WSW 9.2 mph - N/A   Clear
7:55 PM 53.6 °F - 39.2 °F 58% 29.88 in 10.0 mi WSW 9.2 mph - N/A   Clear
8:15 PM 51.8 °F - 39.2 °F 62% 29.88 in 10.0 mi West 8.1 mph - N/A   Clear
8:35 PM 51.8 °F - 39.2 °F 62% 29.88 in 10.0 mi West 8.1 mph - N/A   Clear
8:55 PM 50.0 °F - 39.2 °F 66% 29.89 in 10.0 mi West 9.2 mph - N/A   Clear
9:15 PM 50.0 °F - 37.4 °F 62% 29.90 in 10.0 mi West 9.2 mph - N/A   Clear
9:35 PM 50.0 °F - 37.4 °F 62% 29.90 in 10.0 mi West 10.4 mph - N/A   Clear
9:55 PM 51.8 °F - 37.4 °F 58% 29.90 in 10.0 mi West 9.2 mph - N/A   Clear
10:15 PM 50.0 °F - 37.4 °F 62% 29.90 in 10.0 mi West 8.1 mph - N/A   Clear
10:35 PM 50.0 °F - 37.4 °F 62% 29.90 in 10.0 mi West 5.8 mph - N/A   Clear
10:55 PM 50.0 °F - 37.4 °F 62% 29.90 in 10.0 mi WSW 5.8 mph - N/A   Clear
11:15 PM 48.2 °F - 37.4 °F 66% 29.89 in 10.0 mi West 6.9 mph - N/A   Clear
11:35 PM 46.4 °F 42.9 °F 37.4 °F 71% 29.89 in 10.0 mi West 6.9 mph - N/A   Clear
11:55 PM 46.4 °F 41.5 °F 37.4 °F 71% 29.89 in 10.0 mi West 10.4 mph - N/A   Clear